Weather History for Nantucket, MA

Change the Weather History Date:

Tuesday, September 24, 2013

  Actual Average Record
Temperature  
Mean Temperature 55 °F -  
Max Temperature 61 °F 66 °F 77 °F (1968)
Min Temperature 50 °F 50 °F 38 °F (1976)
Degree Days  
Heating Degree Days 10    
Growing Degree Days 5 (Base 50)    
Moisture  
Dew Point 43 °F    
Average Humidity 67    
Maximum Humidity 83    
Minimum Humidity 53    
Precipitation  
Precipitation 0.00 in - - ()
Sea Level Pressure  
Sea Level Pressure 29.90 in    
Wind  
Wind Speed 9 mph (NW)    
Max Wind Speed 15 mph    
Max Gust Speed 22 mph    
Visibility 10 miles    
Events      
Averages and records for this station are not official NWS values.
T = Trace of Precipitation, MM = Missing Value Source: NWS Daily Summary

Daily Weather History Graph

Daily Weather History Graph

Search for Another Location

Airport:

Trip Planner

Search our weather history database for the weather conditions in past years. The results will help you decide how hot, cold, wet, or windy it might be!

Date:

Astronomy

Sep. 24, 2013 Rise Set
Actual Time 6:29 AM EDT 6:33 PM EDT
Civil Twilight 6:02 AM EDT 7:01 PM EDT
Nautical Twilight 5:30 AM EDT 7:33 PM EDT
Astronomical Twilight 4:57 AM EDT 8:05 PM EDT
Moon 9:45 PM EDT (9/24) 11:44 AM EDT (9/24)
Length of Visible Light 12h 58m
Length of Day
12h 03m
Waning Gibbous, 73% of the Moon is Illuminated
Sep 24
Waning Gibbous
Sep 26
Last Quarter
Oct 4
New
Oct 11
First Quarter
Oct 18
Full

Hourly Weather History & Observations

Time (EDT) Temp. Dew Point Humidity Pressure Visibility Wind Dir Wind Speed Gust Speed Precip Events Conditions
12:53 AM 54.0 °F 43.0 °F 66% 29.98 in 10.0 mi NNW 10.4 mph - N/A   Mostly Cloudy
1:53 AM 52.0 °F 42.1 °F 69% 29.96 in 10.0 mi NW 12.7 mph - N/A   Clear
2:53 AM 50.0 °F 41.0 °F 71% 29.96 in 10.0 mi NW 6.9 mph - N/A   Clear
3:53 AM 50.0 °F 41.0 °F 71% 29.95 in 10.0 mi NW 6.9 mph - N/A   Clear
4:53 AM 50.0 °F 41.0 °F 71% 29.95 in 10.0 mi WNW 9.2 mph - N/A   Partly Cloudy
5:53 AM 50.0 °F 41.0 °F 71% 29.94 in 10.0 mi NW 9.2 mph - N/A   Clear
6:53 AM 50.0 °F 41.0 °F 71% 29.95 in 10.0 mi WNW 9.2 mph - N/A   Scattered Clouds
7:53 AM 53.1 °F 41.0 °F 64% 29.95 in 10.0 mi NW 13.8 mph - N/A   Scattered Clouds
8:53 AM 54.0 °F 39.9 °F 59% 29.94 in 10.0 mi NW 13.8 mph - N/A   Scattered Clouds
9:53 AM 55.9 °F 41.0 °F 57% 29.92 in 10.0 mi NW 15.0 mph - N/A   Scattered Clouds
10:53 AM 55.9 °F 41.0 °F 57% 29.91 in 10.0 mi NW 10.4 mph 19.6 mph N/A   Mostly Cloudy
11:53 AM 57.0 °F 42.1 °F 57% 29.88 in 10.0 mi WSW 11.5 mph 16.1 mph N/A   Scattered Clouds
12:53 PM 57.9 °F 43.0 °F 58% 29.87 in 10.0 mi WSW 15.0 mph 21.9 mph N/A   Partly Cloudy
1:53 PM 57.9 °F 43.0 °F 58% 29.87 in 10.0 mi NW 11.5 mph - N/A   Overcast
2:53 PM 60.1 °F 43.0 °F 53% 29.85 in 10.0 mi NNW 11.5 mph 17.3 mph N/A   Clear
3:53 PM 60.1 °F 43.0 °F 53% 29.83 in 10.0 mi West 8.1 mph 16.1 mph N/A   Clear
4:53 PM 59.0 °F 44.1 °F 58% 29.85 in 10.0 mi WSW 4.6 mph - N/A   Partly Cloudy
5:53 PM 59.0 °F 45.0 °F 60% 29.85 in 10.0 mi WSW 4.6 mph - N/A   Clear
6:53 PM 53.1 °F 46.0 °F 77% 29.86 in 10.0 mi ENE 6.9 mph - N/A   Clear
7:53 PM 52.0 °F 45.0 °F 77% 29.88 in 10.0 mi ENE 5.8 mph - N/A   Clear
8:53 PM 53.1 °F 46.0 °F 77% 29.88 in 10.0 mi East 3.5 mph - N/A   Overcast
9:53 PM 53.1 °F 46.9 °F 80% 29.89 in 10.0 mi Calm Calm - N/A   Overcast
10:53 PM 50.0 °F 45.0 °F 83% 29.89 in 10.0 mi NE 5.8 mph - N/A   Clear
11:53 PM 50.0 °F 44.1 °F 80% 29.90 in 10.0 mi Calm Calm - N/A   Clear